Weather in Boldino

Russia / Vladimir Oblast     55°57′14″N   39°44′17″E
temp.,
°C
wind,
m/s
gust,
m/s
humid.,
%
clouds,
%
prec.,
mm/h
press.,
hPa
HPBL,
m
27 february, sat
sat2700:00+1wnw61397100 0.1 997866
03:00+1w51297100 0.9 999839
06:00−9nnw61287100 1.0 1000768
09:00−12nnw61288100 1.1 1004649
12:00−10n4887100 0.0 1008595
15:00−8nnw4886100 0.0 1010536
18:00−8nnw2794100 0.0 1011254
21:00−9nnw289599 0.1 1013412
28 february, sun
sun2800:00−11nnw259590 0.1 1013155
03:00−12nw229682 0.1 101449
06:00−11nnw239681 0.1 1014112
09:00−10n249384 0.2 1015251
12:00−6nnw238789 0.1 1015421
15:00−4n248994 0.1 1016486
18:00−5nne249496 0.1 1017167
21:00−8ne229697 0.1 101928
1 march, mon
mon100:00−9nne119695 0.0 102121
03:00−8sw129697 0.1 102325
06:00−7wsw2397100 0.1 102391
09:00−7wsw259598 0.1 1023182
12:00−3wsw359390 0.0 1022374
15:00−1wsw479195 0.1 1021589
18:00−1wsw41194100 0.1 1018680
21:000wsw51295100 0.1 1015666
2 march, tue
tue200:00+1w51192100 0.1 1012715
03:00+1w51293100 0.1 1009859
06:00+1wnw61297100 0.6 1006861
09:000nw61391100 0.8 10061161
12:00+1nw6128399 0.1 10071233
15:000nw5118898 0.2 10081211
18:00−1nw51292100 0.2 1009866
21:00−2nw41292100 0.4 1010901
3 march, wed
wed300:00−3nnw5128996 0.1 1010964
03:00−4nw4139084 0.1 1012692
06:00−5nnw5138983 0.0 1013908
09:00−5nnw5128586 0.0 1015759
12:00−3nw598433 0.0 1016895
15:00−2nnw598067 0.1 10171289
18:00−4nw4108596 0.1 1018664
21:00−6wnw399353 0.1 1019223